[[{"header":{"parameterUnit":"m.s-1","parameterCategory":1,"la1":30.2991,"la2":30.254,"lo1":-89.0895,"lo2":-89.0444,"dy":0.0017,"dx":0.0017,"nx":28,"ny":28,"refTime":"2025-06-14T03:00:00:Z","depth":0,"parameterNumber":2,"parameterNumberName":"U-component_of_WINDS"},"data":[0,0,0,0,0,0,0,0,0,0,0,0,0,0,0,0,0,0,0,0,0,0,0,0,0,0,0,0,0,0,0,0,0,0,0,0,0,0,0,0,0,0,0,0,0,0,0,0,0,0,0,0,0,0,0,0,0,0,1.6574,1.6575,0,1.6615,1.6615,1.6616,1.661,1.661,1.6609,1.6608,1.6652,1.6653,1.6655,0,0,0,0,0,0,0,0,0,0,0,0,0,1.6493,1.6495,1.6574,1.6575,1.6575,1.6615,1.6615,1.6616,1.661,1.661,1.6609,1.6608,1.6651,1.6653,1.6655,0,0,0,0,0,0,0,0,0,0,0,0,0,1.6531,1.6495,1.6574,1.6577,1.6578,1.6615,1.6615,1.6616,1.6611,1.661,1.6609,1.6608,1.665,1.6653,1.6655,1.6692,0,0,1.6664,1.6665,0,0,0,0,0,0,0,0,1.6529,1.6534,1.6576,1.6577,1.6578,1.6606,1.6603,1.6642,1.6611,1.6598,1.6608,1.6607,1.6637,1.6641,1.6651,1.6694,1.6696,1.6664,1.6665,1.6667,1.6667,0,0,0,0,0,0,0,1.6526,1.6532,1.659,1.6577,1.6578,1.6577,1.6581,1.661,1.6623,1.6599,1.6599,1.6604,1.6638,1.6648,1.6652,1.6697,1.6664,1.6666,1.6668,1.6669,1.6772,1.6773,0,0,0,0,0,0,1.6522,1.653,1.6589,1.6592,1.655,1.6579,1.6584,1.6598,1.6623,1.6625,1.6605,1.6603,1.6644,1.6649,1.6653,1.6698,1.6667,1.6669,1.6671,1.6771,1.6772,1.6774,0,0,0,0,0,0,1.6521,1.6528,1.6587,1.6561,1.6568,1.6582,1.6598,1.66,1.661,1.6627,1.6629,1.6613,1.6644,1.665,1.6682,1.6699,1.667,1.6673,1.677,1.6771,1.6773,1.6787,0,0,0,0,0,0,1.6518,1.6527,1.6541,1.6561,1.657,1.6615,1.6599,1.6601,1.6615,1.6614,1.6635,1.6638,1.6643,1.6679,1.6685,1.6703,1.6675,1.6768,1.677,1.6772,1.6785,1.6789,1.6793,0,0,0,0,0,1.6515,1.6543,1.6542,1.6549,1.6587,1.6616,1.6621,1.6627,1.6616,1.663,1.6641,1.6637,1.6697,1.6682,1.6689,1.6708,1.6767,1.677,1.6772,1.6784,1.6788,1.6792,0,0,0,0,0,0,1.6525,1.6546,1.6544,1.658,1.6596,1.6615,1.6633,1.6631,1.6652,1.665,1.6656,1.6661,1.6694,1.6704,1.6688,1.6745,1.6731,1.6735,1.6737,1.6741,1.6745,1.6742,1.6677,0,0,0,0,0,1.6532,1.6553,1.6571,1.66,1.6608,1.6619,1.6632,1.6635,1.6653,1.666,1.6673,1.669,1.6713,1.6728,1.6749,1.6787,1.6792,1.6803,1.6807,1.681,1.6813,1.6834,1.6839,1.6782,1.6782,1.6782,0,0,1.6545,1.6559,1.6572,1.6602,1.6616,1.6638,1.6625,1.665,1.6667,1.6664,1.6695,1.6705,1.6726,1.6761,1.6777,1.677,1.683,1.6813,1.6815,1.6817,1.6837,1.6842,1.6847,1.6784,1.6784,1.6783,0,0,1.6581,1.6593,1.6619,1.6633,1.6653,1.666,1.6666,1.6686,1.6692,1.6724,1.6722,1.6742,1.6781,1.6796,1.6808,1.6849,1.6847,1.6856,1.6875,1.6895,1.69,1.6904,1.6918,1.6923,1.686,1.686,1.686,0,1.6595,1.6628,1.6633,1.6658,1.6671,1.6669,1.6695,1.6708,1.6735,1.6744,1.6736,1.6785,1.6798,1.6837,1.6847,1.6857,1.6864,1.6854,1.6898,1.6902,1.6906,1.692,1.6926,1.6861,1.6861,1.6861,1.686,0,1.6644,1.6668,1.6686,1.6711,1.6727,1.6752,1.6761,1.6777,1.6778,1.6786,1.6819,1.6835,1.686,1.6869,1.6871,1.6908,1.6903,1.6897,1.6883,1.6913,1.6926,1.6931,1.6862,1.6862,1.6862,1.6861,0,0,1.6687,1.6714,1.6721,1.6732,1.6754,1.6773,1.6798,1.6822,1.6835,1.6853,1.6875,1.6908,1.6902,1.6916,1.692,1.6938,1.6969,1.6929,1.693,1.6936,1.7011,1.7015,1.7021,1.6968,1.6969,1.697,1.7009,0,1.6724,1.6769,1.6774,1.6814,1.6836,1.6834,1.6857,1.6873,1.6881,1.6901,1.6911,1.6934,1.6925,1.6933,1.6951,1.6961,1.6984,1.6959,1.6988,1.6989,1.6983,1.7028,1.7033,1.7069,1.7014,1.7015,1.7016,0,1.6774,1.6793,1.6835,1.6854,1.6864,1.6883,1.6906,1.6925,1.6943,1.6948,1.6964,1.6965,1.6992,1.6977,1.7015,1.6997,1.701,1.7017,1.7018,1.7021,1.7004,1.7032,1.7081,1.7086,1.7024,1.7023,1.7023,0,1.68,1.6837,1.6867,1.6877,1.69,1.6914,1.6924,1.6941,1.6955,1.6975,1.6984,1.7007,1.702,1.7038,1.7045,1.7034,1.7082,1.7068,1.7087,1.7087,1.7097,1.7096,1.7148,1.7106,1.7106,1.7105,1.7105,0,1.6842,1.6867,1.6879,1.6897,1.6926,1.6932,1.6961,1.6971,1.6986,1.7007,1.7007,1.7026,1.7035,1.7056,1.7062,1.7092,1.7098,1.7103,1.7104,1.7103,1.7102,1.7111,1.7108,1.7107,1.7107,1.7106,1.7106,0,1.6876,1.6885,1.6917,1.6936,1.6941,1.6962,1.6978,1.6996,1.7005,1.7031,1.7037,1.705,1.7075,1.7084,1.7114,1.7119,1.7153,1.7153,1.7146,1.7147,1.7165,1.7163,1.7224,1.7233,1.7185,1.7185,1.7186,0,1.6901,1.6921,1.6942,1.6955,1.6966,1.6988,1.7002,1.7009,1.7024,1.7047,1.7062,1.7086,1.7106,1.7145,1.7158,1.7181,1.7181,1.7201,1.7184,1.7182,1.7181,1.7179,1.7181,1.7204,1.7204,1.7205,1.7205,0,1.6945,1.6948,1.6969,1.699,1.7007,1.7025,1.7042,1.7053,1.7063,1.708,1.7105,1.712,1.7151,1.7175,1.7199,1.721,1.7209,1.721,1.7216,1.7214,1.7209,1.7212,1.7154,1.7208,1.7208,1.7208,1.7208,1.7208,1.6975,1.6992,1.701,1.7033,1.7046,1.7062,1.708,1.709,1.7111,1.7136,1.7139,1.7166,1.7184,1.7216,1.7228,1.725,1.7244,1.7253,1.7255,1.7256,1.7257,1.7206,1.7254,1.7254,1.7254,1.7254,1.7254,0,1.7019,1.703,1.7051,1.7074,1.7092,1.709,1.7109,1.7124,1.7147,1.7164,1.7184,1.7212,1.7236,1.725,1.7274,1.7288,1.7289,1.7294,1.7293,1.7296,1.7261,1.7253,1.7294,1.7294,1.7294,1.7294,1.7294,1.7294,1.7043,1.7072,1.7078,1.7114,1.7125,1.7151,1.7162,1.7177,1.7191,1.7222,1.7242,1.7251,1.7267,1.7292,1.7314,1.7317,1.7326,1.7332,1.7335,1.7302,1.7298,1.7294,1.7287,1.7334,1.7334,1.7368,1.7368,1.7369]},{"header":{"parameterUnit":"m.s-1","parameterCategory":1,"la1":30.2991,"la2":30.254,"lo1":-89.0895,"lo2":-89.0444,"dy":0.0017,"dx":0.0017,"nx":28,"ny":28,"refTime":"2025-06-14T03:00:00:Z","depth":0,"parameterNumber":3,"parameterNumberName":"V-component_of_WINDS"},"data":[0,0,0,0,0,0,0,0,0,0,0,0,0,0,0,0,0,0,0,0,0,0,0,0,0,0,0,0,0,0,0,0,0,0,0,0,0,0,0,0,0,0,0,0,0,0,0,0,0,0,0,0,0,0,0,0,0,0,2.3165,2.3165,0,2.3186,2.3186,2.3186,2.3194,2.3194,2.3194,2.3194,2.3214,2.3215,2.3215,0,0,0,0,0,0,0,0,0,0,0,0,0,2.3131,2.3132,2.3165,2.3165,2.3166,2.3186,2.3186,2.3186,2.3194,2.3194,2.3194,2.3194,2.3214,2.3215,2.3215,0,0,0,0,0,0,0,0,0,0,0,0,0,2.3148,2.3132,2.3165,2.3172,2.3173,2.3186,2.3186,2.3187,2.3194,2.3194,2.3194,2.3194,2.3214,2.3215,2.3216,2.3223,0,0,2.3218,2.3219,0,0,0,0,0,0,0,0,2.3147,2.3149,2.3171,2.3172,2.3172,2.3187,2.3182,2.3199,2.3194,2.3186,2.3194,2.3194,2.3205,2.3207,2.3211,2.3224,2.3225,2.3218,2.3219,2.3219,2.322,0,0,0,0,0,0,0,2.3146,2.3149,2.3173,2.3171,2.3172,2.3174,2.3176,2.3185,2.3196,2.3187,2.3187,2.319,2.3206,2.321,2.3211,2.3225,2.3218,2.3219,2.322,2.322,2.3245,2.3245,0,0,0,0,0,0,2.3144,2.3148,2.3173,2.3174,2.3159,2.3174,2.3177,2.3183,2.3196,2.3198,2.319,2.319,2.3209,2.321,2.3212,2.3222,2.3219,2.322,2.3221,2.3245,2.3245,2.3245,0,0,0,0,0,0,2.3143,2.3146,2.3172,2.3161,2.3164,2.3175,2.3181,2.3183,2.3187,2.3198,2.32,2.3192,2.3209,2.3211,2.322,2.3222,2.3221,2.3221,2.3245,2.3245,2.3245,2.3241,0,0,0,0,0,0,2.3142,2.3146,2.3149,2.3161,2.3165,2.318,2.3181,2.3184,2.3189,2.319,2.3201,2.3203,2.3209,2.3219,2.3221,2.3224,2.3222,2.3245,2.3245,2.3245,2.3241,2.3241,2.3241,0,0,0,0,0,2.3141,2.3147,2.3149,2.3152,2.3169,2.318,2.3182,2.3189,2.3189,2.3192,2.3199,2.3202,2.3222,2.322,2.3222,2.3225,2.3244,2.3245,2.3245,2.3241,2.3241,2.3241,0,0,0,0,0,0,2.3135,2.3149,2.3151,2.3162,2.317,2.3181,2.3186,2.3189,2.3197,2.3197,2.3205,2.3208,2.3216,2.3222,2.3219,2.3233,2.3233,2.3234,2.3229,2.3229,2.3229,2.3228,2.3223,0,0,0,0,0,2.3135,2.3143,2.3154,2.3162,2.3166,2.3175,2.318,2.3185,2.3193,2.3197,2.3204,2.3212,2.322,2.3225,2.3233,2.3242,2.3244,2.3245,2.3245,2.3245,2.3245,2.325,2.325,2.3246,2.3246,2.3246,0,0,2.3135,2.3143,2.3148,2.3161,2.3168,2.3175,2.3178,2.3186,2.3192,2.3198,2.3207,2.3213,2.3222,2.3231,2.3235,2.3236,2.3247,2.3245,2.3245,2.3246,2.325,2.3251,2.3251,2.3246,2.3246,2.3246,0,0,2.3138,2.3145,2.3153,2.3159,2.317,2.3176,2.3177,2.3188,2.3192,2.3202,2.3207,2.3213,2.3227,2.3233,2.3238,2.3243,2.3246,2.3245,2.3246,2.325,2.325,2.3251,2.3252,2.3253,2.3246,2.3246,2.3246,0,2.3136,2.3148,2.3156,2.3164,2.3169,2.3175,2.3182,2.3188,2.32,2.3204,2.3204,2.3221,2.3228,2.3238,2.3239,2.3243,2.3245,2.3244,2.325,2.325,2.3251,2.3252,2.3253,2.3246,2.3246,2.3246,2.3246,0,2.3146,2.3154,2.3158,2.317,2.3176,2.3184,2.3192,2.3197,2.3201,2.3206,2.3216,2.3224,2.3233,2.3236,2.324,2.3247,2.3247,2.3248,2.3249,2.3251,2.3252,2.3253,2.3246,2.3246,2.3246,2.3246,0,0,2.3146,2.3162,2.3163,2.3169,2.318,2.3186,2.3194,2.3203,2.3207,2.3215,2.3221,2.3232,2.3234,2.3239,2.3244,2.3248,2.3251,2.3249,2.3249,2.3249,2.3259,2.3257,2.3258,2.3253,2.3253,2.3253,2.3258,0,2.3151,2.3165,2.3172,2.3182,2.319,2.3195,2.3201,2.3209,2.3214,2.3221,2.3227,2.3234,2.3236,2.3239,2.3243,2.325,2.3253,2.3249,2.3258,2.3259,2.3256,2.3259,2.3258,2.3261,2.3258,2.3259,2.3259,0,2.3159,2.3167,2.3178,2.3189,2.3192,2.3198,2.3206,2.3213,2.3221,2.3225,2.3231,2.3235,2.3243,2.3243,2.3253,2.325,2.3254,2.3258,2.3258,2.3259,2.3259,2.326,2.3263,2.3263,2.326,2.326,2.326,0,2.3158,2.3172,2.318,2.3184,2.3197,2.32,2.3206,2.3214,2.3219,2.3227,2.323,2.3238,2.3243,2.3249,2.3255,2.3254,2.3264,2.3265,2.3267,2.3267,2.3269,2.3269,2.3273,2.3272,2.3272,2.3272,2.3272,0,2.3162,2.3169,2.318,2.3185,2.3192,2.32,2.3207,2.3212,2.322,2.3226,2.3231,2.3236,2.3244,2.3251,2.3256,2.3263,2.3265,2.3268,2.3269,2.3267,2.3267,2.327,2.327,2.3272,2.3272,2.3272,2.3272,0,2.3163,2.317,2.318,2.319,2.3193,2.3198,2.3207,2.3212,2.3218,2.3225,2.3227,2.3236,2.3244,2.3251,2.3261,2.3264,2.3272,2.3273,2.3269,2.3269,2.3271,2.3271,2.3277,2.3278,2.3277,2.3277,2.3277,0,2.3165,2.317,2.3182,2.3186,2.3191,2.3199,2.3204,2.3211,2.3216,2.3226,2.3229,2.3238,2.3244,2.3256,2.3263,2.3271,2.3273,2.3274,2.3274,2.3272,2.3273,2.3272,2.3273,2.3274,2.3274,2.3274,2.3274,0,2.3169,2.3172,2.3179,2.3188,2.3194,2.3201,2.3208,2.3211,2.322,2.3225,2.3233,2.3239,2.3249,2.3257,2.3265,2.327,2.3273,2.3274,2.3275,2.3274,2.3271,2.3272,2.3269,2.3274,2.3274,2.3274,2.3274,2.3274,2.317,2.3175,2.3183,2.3191,2.3197,2.3204,2.3209,2.3215,2.3222,2.3231,2.3235,2.3243,2.3251,2.3262,2.3267,2.3273,2.3274,2.3275,2.3276,2.3276,2.3276,2.327,2.3275,2.3275,2.3275,2.3275,2.3275,0,2.3173,2.3179,2.3186,2.3196,2.3202,2.3205,2.3213,2.3218,2.3225,2.3232,2.3239,2.3248,2.3255,2.3263,2.3271,2.3274,2.3276,2.3276,2.3276,2.3277,2.3275,2.3273,2.3274,2.3274,2.3274,2.3274,2.3274,2.3274,2.3176,2.3184,2.3188,2.3199,2.3205,2.3213,2.3217,2.3223,2.3229,2.3239,2.3245,2.325,2.3257,2.3265,2.3272,2.3274,2.3277,2.3277,2.3279,2.3277,2.3277,2.3277,2.3275,2.3277,2.3277,2.328,2.328,2.328]}]]